Location: Newark
(40.7360°N, 74.1730°W)
Time: 15:56:35
(UTC-04:00)

ISS - All Passes

Search period start: 23 October 2014 00:00
Search period end: 02 November 2014 00:00
Orbit: 412 x 416 km, 51.6° (Epoch: 23 October)

Date Brightness Start Highest point End Pass type
(mag) Time Alt. Az. Time Alt. Az. Time Alt. Az.
23 Oct - 12:25:30 10° SSE 12:27:19 14° SE 12:29:08 10° E daylight
23 Oct - 14:00:20 10° WSW 14:03:38 65° NW 14:06:58 10° NE daylight
23 Oct - 15:38:33 10° WNW 15:40:50 17° NNW 15:43:08 10° NNE daylight
23 Oct - 17:16:53 10° NNW 17:18:34 13° N 17:20:16 10° NE daylight
23 Oct - 18:53:11 10° NW 18:56:07 28° NNE 18:59:03 10° E visible
23 Oct - 20:29:43 10° WNW 20:32:54 42° SW 20:36:04 10° SSE visible
24 Oct - 13:11:11 10° SW 13:14:29 71° SE 13:17:49 10° ENE daylight
24 Oct - 14:48:49 10° WNW 14:51:28 21° NNW 14:54:08 10° NNE daylight
24 Oct - 16:27:31 10° NNW 16:29:07 13° N 16:30:42 10° NNE daylight
24 Oct - 18:04:11 10° NNW 18:06:47 21° NNE 18:09:23 10° ENE daylight
24 Oct - 19:40:27 10° NW 19:43:48 79° SW 19:47:07 10° SE visible
25 Oct - 12:22:15 10° SSW 12:25:21 38° SE 12:28:29 10° ENE daylight
25 Oct - 13:59:08 10° W 14:02:06 29° NNW 14:05:05 10° NE daylight
25 Oct - 15:37:54 10° NW 15:39:37 13° N 15:41:20 10° NNE daylight
25 Oct - 17:15:07 10° NNW 17:17:21 16° NNE 17:19:34 10° ENE daylight
25 Oct - 18:51:16 10° NW 18:54:35 59° NNE 18:57:52 10° ESE visible
25 Oct - 20:28:52 10° W 20:30:56 16° SW 20:32:59 10° S visible
26 Oct - 11:33:39 10° S 11:36:15 21° SE 11:38:51 10° E daylight
26 Oct - 13:09:32 10° WSW 13:12:44 44° NNW 13:15:58 10° NE daylight
26 Oct - 14:48:04 10° NW 14:50:05 15° NNW 14:52:06 10° NNE daylight
26 Oct - 16:25:57 10° NNW 16:27:49 14° N 16:29:42 10° NE daylight
26 Oct - 18:02:06 10° NW 18:05:15 36° NNE 18:08:22 10° E daylight
26 Oct - 19:38:57 10° WNW 19:41:50 27° SW 19:44:42 10° SSE visible
27 Oct - 10:45:48 10° SSE 10:47:09 12° SE 10:48:29 10° ESE daylight
27 Oct - 12:20:05 10° WSW 12:23:24 75° NW 12:26:44 10° NE daylight
27 Oct - 13:58:09 10° WNW 14:00:32 18° NNW 14:02:54 10° NNE daylight
27 Oct - 15:36:36 10° NNW 15:38:14 13° N 15:39:52 10° NNE daylight
27 Oct - 17:12:57 10° NW 17:15:48 25° NNE 17:18:38 10° E daylight
27 Oct - 18:49:23 10° WNW 18:52:38 49° SW 18:55:51 10° SE visible
28 Oct - 11:30:48 10° SW 11:34:04 60° SE 11:37:21 10° ENE daylight
28 Oct - 13:08:14 10° WNW 13:10:58 23° NNW 13:13:43 10° NNE daylight
28 Oct - 14:46:59 10° NNW 14:48:34 13° N 14:50:10 10° NNE daylight
28 Oct - 16:23:45 10° NNW 16:26:15 19° NNE 16:28:44 10° ENE daylight
28 Oct - 17:59:58 10° NW 18:03:19 89° NE 18:06:38 10° SE daylight
29 Oct - 10:41:46 10° SSW 10:44:45 32° SE 10:47:46 10° ENE daylight
29 Oct - 12:18:23 10° W 12:21:25 32° NNW 12:24:28 10° NE daylight
29 Oct - 13:57:06 10° NW 13:58:52 14° N 14:00:39 10° NNE daylight
29 Oct - 15:34:29 10° NNW 15:36:36 16° NNE 15:38:43 10° NE daylight
29 Oct - 17:10:36 10° NW 17:13:52 51° NNE 17:17:08 10° ESE daylight
29 Oct - 18:47:56 10° W 18:50:17 18° SW 18:52:37 10° S visible
30 Oct - 09:53:07 10° S 09:55:28 18° SE 09:57:50 10° E daylight
30 Oct - 11:28:38 10° WSW 11:31:53 50° NNW 11:35:08 10° NE daylight
30 Oct - 13:07:03 10° NW 13:09:09 16° NNW 13:11:15 10° NNE daylight
30 Oct - 14:45:06 10° NNW 14:46:53 14° N 14:48:39 10° NE daylight
30 Oct - 16:21:16 10° NW 16:24:19 32° NNE 16:27:22 10° E daylight
30 Oct - 17:57:58 10° WNW 18:00:59 32° SW 18:03:58 10° SSE daylight
31 Oct - 10:39:02 10° SW 10:42:21 88° NW 10:45:41 10° NE daylight
31 Oct - 12:16:56 10° WNW 12:19:25 19° NNW 12:21:53 10° NNE daylight
31 Oct - 13:55:30 10° NNW 13:57:05 13° N 13:58:39 10° NNE daylight
31 Oct - 15:31:55 10° NNW 15:34:40 23° NNE 15:37:24 10° ENE daylight
31 Oct - 17:08:16 10° WNW 17:11:33 59° SW 17:14:49 10° SE daylight
01 Nov - 09:49:38 10° SW 09:52:51 50° SE 09:56:05 10° ENE daylight
01 Nov - 11:26:51 10° W 11:29:40 25° NNW 11:32:30 10° NE daylight
01 Nov - 13:05:37 10° NNW 13:07:13 13° N 13:08:50 10° NNE daylight
01 Nov - 14:42:32 10° NNW 14:44:54 18° NNE 14:47:17 10° ENE daylight
01 Nov - 16:18:41 10° NW 16:22:01 75° NE 16:25:20 10° ESE daylight
01 Nov - 17:56:56 10° WSW 17:58:15 12° SW 17:59:34 10° SSW daylight
